Flag for U.S.A. Weather past 2 weeks in Lafayette, Indiana, U.S.A.

Now
41 °F

Clear.


Feels Like: 39 °F
Forecast: 35 / 55 °F
Wind: 3 mph from Northeast

Location: Purdue University Airport

Current Time: Oct 22, 2014 at 12:46:54 AM

Latest Report: Oct 21, 2014 at 11:54 PM


Visibility: 10 mi

Pressure: 30.24 "Hg

Humidity: 86%

Dew point: 37 °F

Location of LafayetteLocation

Historic Weather in Lafayette — Graph

°F

Lafayette temperature yesterday

Maximum temperature yesterday: 55 °F (at 11:54 AM)
Minimum temperature yesterday: 42 °F (at 10:54 PM)
Average temperature yesterday: 49 °F

Past Weeks' High & Low Weather Summary

 TemperatureHumidityPressure
High73 °F (Oct 13, 1:54 PM)100% (Oct 8, 3:54 AM)30.26 "Hg (Oct 8, 3:54 AM)
Low33 °F (Oct 19, 7:54 AM)36% (Oct 8, 3:54 PM)29.48 "Hg (Oct 14, 7:54 AM)
Average53 °F82%29.92 "Hg
* Reported Oct 6 10:54 PM — Oct 21 10:54 PM, Lafayette, Weather by CustomWeather, © 2014

Note: Actual official high and low records may vary slightly from our data, if they occured in-between our weather recording intervals... More about our weather records

Advertising

Lafayette weather history for previous 24 hours

 ConditionsComfort  
Time TempWeatherWind HumidityBarometerVisibility
10:54 PM
Oct 21
42 °FClear.3 mph82%30.24 "Hg10 mi
9:54 PM43 °FClear.6 mph82%30.22 "Hg10 mi
8:54 PM45 °FClear.6 mph80%30.20 "Hg10 mi
7:54 PM48 °FSunny.9 mph74%30.18 "Hg10 mi
6:54 PM50 °FSunny.8 mph68%30.16 "Hg10 mi
5:54 PM53 °FPartly sunny.14 mph69%30.15 "Hg10 mi
4:54 PM53 °FOvercast.9 mph69%30.14 "Hg10 mi
3:54 PM52 °FMostly cloudy.8 mph72%30.13 "Hg10 mi
2:54 PM53 °FMostly cloudy.9 mph69%30.12 "Hg10 mi
1:54 PM54 °FOvercast.10 mph62%30.12 "Hg10 mi
12:54 PM54 °FOvercast.13 mph62%30.11 "Hg10 mi
11:54 AM55 °FScattered clouds.12 mph62%30.11 "Hg10 mi
10:54 AM50 °FMore clouds than sun.17 mph83%30.11 "Hg10 mi
9:54 AM48 °FLight rain. Fog.6 mph93%30.10 "Hg6 mi
8:54 AM48 °FOvercast.7 mph89%30.08 "Hg10 mi
7:54 AM48 °FMostly cloudy.8 mph89%30.05 "Hg10 mi
6:54 AM47 °FOvercast.7 mph93%30.03 "Hg10 mi
5:54 AM47 °FOvercast.6 mph93%30.01 "Hg8 mi
4:54 AM43 °FFog.6 mph97%30.00 "Hg5 mi
3:54 AM43 °FPassing clouds.5 mph97%29.99 "Hg7 mi
2:54 AM44 °FFog.6 mph96%29.98 "Hg6 mi
1:54 AM47 °FPassing clouds.5 mph93%29.98 "Hg10 mi
12:54 AM50 °FOvercast.3 mph86%29.98 "Hg10 mi
Weather by CustomWeather, © 2014

See weather overviewHow to use our weather pages